{"data":{"norad_id":58041,"epoch":"2026-05-25T03:06:39.356352Z","epoch_age_seconds":57159,"freshness":"FRESH","line1":"1 58041U 23156P   26145.12962218  .00000272  00000+0  21325-4 0  9991","line2":"2 58041  53.1609  83.1735 0001085  97.1622 262.9502 15.30184412148011","mean_motion":15.30184412,"eccentricity":0.0001085,"inclination_deg":53.1609,"raan_deg":83.1735,"arg_perigee_deg":97.1622,"mean_anomaly_deg":262.9502,"bstar":2.1325e-5,"rev_number":14801,"period_min":94.106304358301,"perigee_km":474.51801902319,"apogee_km":476.00520652217,"semimajor_km":6853.3986127727,"source":"CELESTRAK","updated_at":"2026-05-25T13:38:18.496679Z"}}